sat.trackr.live / text

‹ back to catalog

STARLINK-31080

NORAD 58603 · 2023-200Q

PAYLOAD ACTIVE UNKNOWN

§ Identity

Operator
Country
US
Launch date
2023-12-19
Launch site
AFETR
Launch vehicle
Mass (kg)
RCS (m²)

Purposes: comms

External: N2YO · Heavens-Above · Gunter

§ Orbital elements

Epoch: 2026-09-20T02:07:52.780512Z

Period
94.27 min
Inclination
43.0041°
Eccentricity
0.0001142
Mean motion
15.27578040 rev/d
Perigee alt
482.3 km
Apogee alt
483.8 km
Semi-major
6,861.2 km
B*
4.7833e-5
RAAN
150.8145°
Arg perigee
272.3789°
Mean anomaly
87.6931°
Rev number
15,315

§ Raw data

STARLINK-310801 58603U 23200Q   26263.08880533  .00001054  00000+0  47833-4 0  99912 58603  43.0041 150.8145 0001142 272.3789  87.6931 15.27578040153154

JSON: /api/v1/satellites/58603 · /tle

For live sub-satellite position, see the globe view (requires WebGL).

§ Visibility from observer

Set your observer location to see the next 7 days of passes ≥ 10°. The values pass through the URL so the page stays shareable.

No JS? Fill the form by hand. The geolocation button needs JavaScript.